Hourly Data Report for September 12, 2019

TORONTO CITY
ONTARIO
Current Station Operator: ECCC - MSC

43°40'00.000" N
79°24'00.000" W
112.50 m
6158355
71508
XTO

Download Data

Hourly Data (September 2019)
Hourly Data Report for September 12, 2019
TIME
LST
Temp Definition
°C
Dew Point Definition
°C
Rel Hum Definition
%
Precip. Amount Definition
mm

Wind Dir Definition
10's deg

Wind Spd Definition
km/h
Visibility Definition
km
Stn Press Definition
kPa
Hmdx Definition


Wind Chill Definition


Weather Definition


00:00 20.2 14.5 70 0.0       100.57     LegendNANA
01:00 18.6 12.9 69 0.0       100.56     LegendNANA
02:00 17.3 12.6 74 0.0       100.52     LegendNANA
03:00 16.4 11.9 74 0.0       100.62     LegendNANA
04:00 14.8 11.1 79 0.2       100.68     LegendNANA
05:00 14.1 11.1 82 0.3       100.76     LegendNANA
06:00 14.0 11.1 83 0.0       100.80     LegendNANA
07:00 14.5 11.0 80 0.0       100.90     LegendNANA
08:00 14.8 9.9 72 0.0       100.96     LegendNANA
09:00 15.2 9.9 70 0.0       101.03     LegendNANA
10:00 15.8 9.8 68 0.0       101.05     LegendNANA
11:00 16.6 8.7 60 0.0       101.05     LegendNANA
12:00 17.5 8.0 54 0.0       101.07     LegendNANA
13:00 18.6 10.0 57 0.0       101.08     LegendNANA
14:00 18.8 9.2 54 0.0       101.10     LegendNANA
15:00 19.2 10.1 56 0.0       101.11     LegendNANA
16:00 18.2 9.4 56 0.0       101.14     LegendNANA
17:00 18.0 9.4 57 0.0       101.17     LegendNANA
18:00 17.8 9.9 60 0.0       101.19     LegendNANA
19:00 17.5 10.1 62 0.0       101.22     LegendNANA
20:00 17.1 10.4 65 0.0       101.25     LegendNANA
21:00 17.0 11.5 70 0.0       101.29     LegendNANA
22:00 16.5 12.0 75 0.0       101.31     LegendNANA
23:00 16.5 10.7 69 0.0       101.30     LegendNANA

Notes on Data Quality.

Legend

  • E = Estimated
  • M = Missing
  • NA = Not Available*
  • [empty] = Indicates an unobserved value
Date modified: